Weather History for KHKY - November, 2010

Change the Weather History Date:

Sunday, November 14, 2010

  Actual Average Record
Temperature  
Mean Temperature 49 °F -  
Max Temperature 64 °F 58 °F 78 °F (1999)
Min Temperature 34 °F 34 °F 17 °F (1986)
Degree Days  
Heating Degree Days 16    
Moisture  
Dew Point 35 °F    
Average Humidity 61    
Maximum Humidity 96    
Minimum Humidity 29    
Precipitation  
Precipitation 0.00 in - - ()
Sea Level Pressure  
Sea Level Pressure 30.00 in    
Wind  
Wind Speed 2 mph (SSW)    
Max Wind Speed 10 mph    
Max Gust Speed -    
Visibility 10 miles    
Events      
Averages and records for this station are not official NWS values.
T = Trace of Precipitation, MM = Missing Value Source: NWS Daily Summary

Daily Weather History Graph

Daily Weather History Graph

Search for Another Location

Airport or City:

Trip Planner

Search our weather history database for the weather conditions in past years. The results will help you decide how hot, cold, wet, or windy it might be!

Date:

Astronomy

Nov. 14, 2010 Rise Set
Actual Time 7:00 AM EST 5:19 PM EST
Civil Twilight 6:33 AM EST 5:46 PM EST
Nautical Twilight 6:02 AM EST 6:17 PM EST
Astronomical Twilight 5:32 AM EST 6:47 PM EST
Moon 1:25 PM EST (11/14) 12:21 AM EST (11/14)
Length of Visible Light 11h 12m
Length of Day
10h 18m
First Quarter, 60% of the Moon is Illuminated
Nov 14
First Quarter
Nov 21
Full
Nov 28
Last Quarter
Dec 5
New
Dec 13
First Quarter

Hourly Weather History & Observations

Time (EST) Temp. Windchill Dew Point Humidity Pressure Visibility Wind Dir Wind Speed Gust Speed Precip Events Conditions
12:53 AM 42.1 °F - 37.0 °F 82% 30.07 in 10.0 mi Calm Calm - N/A   Clear
1:53 AM 39.9 °F - 35.1 °F 83% 30.05 in 10.0 mi Calm Calm - N/A   Clear
2:53 AM 39.0 °F 36.8 °F 35.1 °F 86% 30.04 in 10.0 mi NW 3.5 mph - N/A   Clear
3:53 AM 37.9 °F - 34.0 °F 86% 30.04 in 10.0 mi Calm Calm - N/A   Clear
4:53 AM 35.1 °F - 33.1 °F 92% 30.04 in 10.0 mi Calm Calm - N/A   Clear
5:53 AM 36.0 °F - 33.1 °F 89% 30.05 in 10.0 mi Calm Calm - N/A   Clear
6:53 AM 34.0 °F 31.0 °F 33.1 °F 96% 30.06 in 10.0 mi NW 3.5 mph - N/A   Clear
7:53 AM 36.0 °F - 33.1 °F 89% 30.07 in 10.0 mi Calm Calm - N/A   Clear
8:53 AM 43.0 °F - 37.9 °F 82% 30.07 in 10.0 mi Calm Calm - N/A   Clear
9:53 AM 48.9 °F - 37.9 °F 66% 30.06 in 10.0 mi Calm Calm - N/A   Clear
10:53 AM 55.9 °F - 37.0 °F 49% 30.05 in 10.0 mi Calm Calm - N/A   Clear
11:53 AM 64.0 °F - 30.9 °F 29% 30.01 in 10.0 mi South 10.4 mph - N/A   Clear
12:53 PM 64.9 °F - 33.1 °F 31% 29.99 in 10.0 mi South 8.1 mph - N/A   Clear
1:53 PM 64.0 °F - 32.0 °F 30% 29.96 in 10.0 mi SSW 8.1 mph - N/A   Scattered Clouds
2:53 PM 64.9 °F - 33.1 °F 31% 29.95 in 10.0 mi South 8.1 mph - N/A   Overcast
3:53 PM 64.9 °F - 33.1 °F 31% 29.94 in 10.0 mi SSW 8.1 mph - N/A   Clear
4:53 PM 64.0 °F - 34.0 °F 33% 29.95 in 10.0 mi South 3.5 mph - N/A   Mostly Cloudy
5:53 PM 62.1 °F - 34.0 °F 35% 29.95 in 10.0 mi South 5.8 mph - N/A   Overcast
6:53 PM 57.0 °F - 36.0 °F 45% 29.96 in 10.0 mi Calm Calm - N/A   Partly Cloudy
7:53 PM 55.9 °F - 35.1 °F 45% 29.96 in 10.0 mi Calm Calm - N/A   Clear
8:53 PM 53.1 °F - 36.0 °F 52% 29.96 in 10.0 mi Calm Calm - N/A   Clear
9:53 PM 51.1 °F - 37.0 °F 59% 29.95 in 10.0 mi Calm Calm - N/A   Clear
10:53 PM 51.1 °F - 37.0 °F 59% 29.94 in 10.0 mi Calm Calm - N/A   Clear
11:53 PM 45.0 °F - 37.9 °F 76% 29.94 in 10.0 mi Calm Calm - N/A   Partly Cloudy